Regional Weather Roundup
Issued by NWS

Home | Current Version | Previous Version | Graphics & Text | Print | Product List | Glossary On
Versions: 1 2 3 4 5 6 7 8 9 10 11 12 13 14 15 16 17 18 19 20 21 22 23 24 25 26 27 28 29 30 31 32 33 34 35 36 37 38 39 40 41 42 43 44 45 46 47 48 49 50
000
ASUS43 KIND 051959
RWRIN

WEATHER ROUNDUP FOR INDIANA
NATIONAL WEATHER SERVICE INDIANAPOLIS IN
400 PM EDT SUN JUL 05 2015

NOTE: "FAIR" INDICATES FEW OR NO CLOUDS BELOW 12,000 FEET WITH NO
SIGNIFICANT WEATHER AND/OR OBSTRUCTIONS TO VISIBILITY.

* - STATION DOES NOT REPORT WEATHER SUCH AS PRECIPITATION OR FOG.

+ - STATION NOT QUALITY CONTROLLED BY THE NATIONAL WEATHER SERVICE.
    USE DATA WITH CAUTION...ESPECIALLY DEWPOINT AND RELATIVE
    HUMIDITY OBSERVATIONS.

INZ001>003-010>013-019-020-052100-
NORTHWEST INDIANA

CITY           SKY/WX    TMP DP  RH WIND       PRES   REMARKS
GARY /AIRPORT/ MOSUNNY  N/A N/A N/A S7        30.06F
MONTICELLO +   SUNNY     80  62  54 CALM      30.07S
RENSSELAER +   SUNNY     81  61  50 SW5       30.08S

$$

LMZ046-743>745-052100-
SOUTHERN LAKE MICHIGAN

STATION/POSITION TIME  TEMP    WIND        PRES    WAVE
                       AIR SEA DIR/SP/G            HT
                 (UTC) (F)     (DEG/KT/KT) (MB)    (FT)
BURNS HARBOR     1900   74      60/  6/  8 1018.6F
MICHIGAN CITY    1900   70      30/  7/  7   N/A
5NW MICH CITY    1900   70 68   60/  4/  6   N/A     1

$$

INZ004-005-014>016-021>024-052100-
NORTH CENTRAL INDIANA

CITY           SKY/WX    TMP DP  RH WIND       PRES   REMARKS
ELKHART        SUNNY     82  57  42 CALM      30.08F
GOSHEN         SUNNY     81  60  48 S5        30.08F
SOUTH BEND     SUNNY     83  58  42 VRB7      30.07F

$$

INZ006>009-017-018-025>027-052100-
NORTHEAST INDIANA

CITY           SKY/WX    TMP DP  RH WIND       PRES   REMARKS
ANGOLA *+        N/A     82  79  89 S5        30.10S
FORT WAYNE     CLOUDY    82  61  48 VRB6      30.10S

$$

INZ028-029-035-036-043>045-051>053-052100-
WEST CENTRAL INDIANA

CITY           SKY/WX    TMP DP  RH WIND       PRES   REMARKS
CRAWFORDSVL +  SUNNY     79  55  43 CALM      30.08S
GREENCASTLE +  MOSUNNY   81  57  44 E5        30.08F
LAFAYETTE      SUNNY     82  58  43 S5        30.07S
TERRE HAUTE    SUNNY     83  63  50 CALM      30.06F

$$

INZ030>032-037>040-046>048-054>057-064-065-052100-
CENTRAL INDIANA

CITY           SKY/WX    TMP DP  RH WIND       PRES   REMARKS
GREENWOOD *+   CLOUDY    77  61  57 SE6       30.10S
INDIANAPOLIS   PTSUNNY   81  58  45 CALM      30.07S
-EAGLE CREEK   PTSUNNY   80  61  52 CALM      30.07F
KOKOMO *+      MOSUNNY   82  61  47 S3        30.08S
MT COMFORT *+  CLOUDY    77  52  41 SE3       30.10S
SHELBYVILLE    CLOUDY    83  63  50 CALM      30.08F

$$

INZ033-034-041-042-049-050-058-059-052100-
EAST CENTRAL INDIANA

CITY           SKY/WX    TMP DP  RH WIND       PRES   REMARKS
MUNCIE         CLOUDY    78  61  55 SE3       30.09S

$$

INZ060-061-067>069-081>083-085>088-052100-
SOUTHWEST INDIANA

CITY           SKY/WX    TMP DP  RH WIND       PRES   REMARKS
EVANSVILLE     PTSUNNY   83  68  60 MISG      30.06F
HUNTINGBURG *+ PTSUNNY   82  64  54 S6        30.07S

$$

INZ062-063-066-070>080-084-089>092-052100-
SOUTH CENTRAL AND SOUTHEAST INDIANA

CITY           SKY/WX    TMP DP  RH WIND       PRES   REMARKS
BLOOMINGTON    CLOUDY    81  64  56 SE3       30.08S
MADISON *+     CLOUDY    77  57  50 E5        30.11S
SEYMOUR +      CLOUDY    81  66  61 E5        30.08S

$$




USA.gov is the U.S. government's official web portal to all federal, state and local government web resources and services.